Time,TemperatureF,DewpointF,PressureIn,WindDirection,WindDirectionDegrees,WindSpeedMPH,WindSpeedGustMPH,Humidity,HourlyPrecipIn,Conditions,Clouds,dailyrainin,SoftwareType,DateUTC
2013-03-24 00:01:00,34.9,19.0,29.85,North,-999,-999.0,-999.0,52,-99.99,,,-99.99,open2300-1.11,2013-03-24 04:01:00,
2013-03-24 00:02:00,35.1,19.2,29.85,North,-999,-999.0,-999.0,52,-99.99,,,-99.99,open2300-1.11,2013-03-24 04:02:00,
2013-03-24 00:04:00,35.2,19.4,29.85,North,-999,-999.0,-999.0,52,-99.99,,,-99.99,open2300-1.11,2013-03-24 04:04:00,
2013-03-24 00:09:00,35.2,18.9,29.85,North,-999,-999.0,-999.0,51,-99.99,,,-99.99,open2300-1.11,2013-03-24 04:09:00,
2013-03-24 00:15:00,35.1,18.8,29.85,North,-999,-999.0,-999.0,51,-99.99,,,-99.99,open2300-1.11,2013-03-24 04:15:00,
2013-03-24 00:18:00,34.9,18.6,29.85,North,-999,-999.0,-999.0,51,-99.99,,,-99.99,open2300-1.11,2013-03-24 04:18:00,
2013-03-24 00:24:00,34.9,18.6,29.85,North,-999,-999.0,-999.0,51,-99.99,,,-99.99,open2300-1.11,2013-03-24 04:24:00,
2013-03-24 00:29:00,34.9,18.6,29.84,North,-999,-999.0,-999.0,51,-99.99,,,-99.99,open2300-1.11,2013-03-24 04:29:00,
2013-03-24 00:35:00,34.9,18.6,29.84,North,-999,-999.0,-999.0,51,-99.99,,,-99.99,open2300-1.11,2013-03-24 04:35:00,
2013-03-24 00:41:00,34.9,18.6,29.84,North,-999,-999.0,-999.0,51,-99.99,,,-99.99,open2300-1.11,2013-03-24 04:41:00,
2013-03-24 00:47:00,34.9,18.6,29.85,North,-999,-999.0,-999.0,51,-99.99,,,-99.99,open2300-1.11,2013-03-24 04:47:00,
2013-03-24 00:52:00,34.9,19.0,29.84,North,-999,-999.0,-999.0,52,-99.99,,,-99.99,open2300-1.11,2013-03-24 04:52:00,
2013-03-24 00:58:00,34.9,19.0,29.84,North,-999,-999.0,-999.0,52,-99.99,,,-99.99,open2300-1.11,2013-03-24 04:58:00,
2013-03-24 01:04:00,34.3,18.5,29.84,North,-999,-999.0,-999.0,52,-99.99,,,-99.99,open2300-1.11,2013-03-24 05:04:00,
2013-03-24 01:09:00,34.3,18.5,29.84,North,-999,-999.0,-999.0,52,-99.99,,,-99.99,open2300-1.11,2013-03-24 05:09:00,
2013-03-24 01:15:00,33.8,18.4,29.84,North,-999,-999.0,-999.0,53,-99.99,,,-99.99,open2300-1.11,2013-03-24 05:15:00,
2013-03-24 01:21:00,34.0,18.5,29.84,North,-999,-999.0,-999.0,53,-99.99,,,-99.99,open2300-1.11,2013-03-24 05:21:00,
2013-03-24 01:26:00,34.0,18.5,29.84,North,-999,-999.0,-999.0,53,-99.99,,,-99.99,open2300-1.11,2013-03-24 05:26:00,
2013-03-24 01:31:00,33.6,18.6,29.84,North,-999,-999.0,-999.0,54,-99.99,,,-99.99,open2300-1.11,2013-03-24 05:31:00,
2013-03-24 01:37:00,33.4,18.5,29.84,North,-999,-999.0,-999.0,54,-99.99,,,-99.99,open2300-1.11,2013-03-24 05:37:00,
2013-03-24 01:42:00,33.1,18.1,29.84,North,-999,-999.0,-999.0,54,-99.99,,,-99.99,open2300-1.11,2013-03-24 05:42:00,
2013-03-24 01:48:00,32.7,17.8,29.84,North,-999,-999.0,-999.0,54,-99.99,,,-99.99,open2300-1.11,2013-03-24 05:48:00,
2013-03-24 01:55:00,32.5,18.1,29.84,North,-999,-999.0,-999.0,55,-99.99,,,-99.99,open2300-1.11,2013-03-24 05:55:00,
2013-03-24 02:00:00,32.5,18.1,29.83,North,-999,-999.0,-999.0,55,-99.99,,,-99.99,open2300-1.11,2013-03-24 06:00:00,
2013-03-24 02:06:00,32.4,17.9,29.83,North,-999,-999.0,-999.0,55,-99.99,,,-99.99,open2300-1.11,2013-03-24 06:06:00,
2013-03-24 02:11:00,32.2,18.2,29.83,North,-999,-999.0,-999.0,56,-99.99,,,-99.99,open2300-1.11,2013-03-24 06:11:00,
2013-03-24 02:17:00,31.6,17.7,29.84,North,-999,-999.0,-999.0,56,-99.99,,,-99.99,open2300-1.11,2013-03-24 06:17:00,
2013-03-24 02:22:00,31.3,17.8,29.84,North,-999,-999.0,-999.0,57,-99.99,,,-99.99,open2300-1.11,2013-03-24 06:22:00,
2013-03-24 02:28:00,30.9,17.4,29.83,North,-999,-999.0,-999.0,57,-99.99,,,-99.99,open2300-1.11,2013-03-24 06:28:00,
2013-03-24 02:33:00,30.7,17.2,29.83,North,-999,-999.0,-999.0,57,-99.99,,,-99.99,open2300-1.11,2013-03-24 06:33:00,
2013-03-24 02:38:00,30.0,17.0,29.82,North,-999,-999.0,-999.0,58,-99.99,,,-99.99,open2300-1.11,2013-03-24 06:38:00,
2013-03-24 02:44:00,29.8,16.8,29.82,North,-999,-999.0,-999.0,58,-99.99,,,-99.99,open2300-1.11,2013-03-24 06:44:00,
2013-03-24 02:49:00,29.5,17.3,29.82,North,-999,-999.0,-999.0,60,-99.99,,,-99.99,open2300-1.11,2013-03-24 06:49:00,
2013-03-24 02:55:00,29.1,17.0,29.82,North,-999,-999.0,-999.0,60,-99.99,,,-99.99,open2300-1.11,2013-03-24 06:55:00,
2013-03-24 03:01:00,29.1,17.4,29.82,North,-999,-999.0,-999.0,61,-99.99,,,-99.99,open2300-1.11,2013-03-24 07:01:00,
2013-03-24 03:07:00,29.1,17.7,29.83,North,-999,-999.0,-999.0,62,-99.99,,,-99.99,open2300-1.11,2013-03-24 07:07:00,
2013-03-24 03:12:00,29.3,17.9,29.83,North,-999,-999.0,-999.0,62,-99.99,,,-99.99,open2300-1.11,2013-03-24 07:12:00,
2013-03-24 03:17:00,29.3,17.9,29.83,North,-999,-999.0,-999.0,62,-99.99,,,-99.99,open2300-1.11,2013-03-24 07:17:00,
2013-03-24 03:23:00,29.3,18.2,29.83,North,-999,-999.0,-999.0,63,-99.99,,,-99.99,open2300-1.11,2013-03-24 07:23:00,
2013-03-24 03:29:00,29.1,17.7,29.84,North,-999,-999.0,-999.0,62,-99.99,,,-99.99,open2300-1.11,2013-03-24 07:29:00,
2013-03-24 03:34:00,29.3,17.9,29.83,North,-999,-999.0,-999.0,62,-99.99,,,-99.99,open2300-1.11,2013-03-24 07:34:00,
2013-03-24 03:40:00,29.3,18.2,29.84,North,-999,-999.0,-999.0,63,-99.99,,,-99.99,open2300-1.11,2013-03-24 07:40:00,
2013-03-24 03:45:00,29.1,18.1,29.84,North,-999,-999.0,-999.0,63,-99.99,,,-99.99,open2300-1.11,2013-03-24 07:45:00,
2013-03-24 03:51:00,28.9,17.9,29.83,North,-999,-999.0,-999.0,63,-99.99,,,-99.99,open2300-1.11,2013-03-24 07:51:00,
2013-03-24 03:56:00,28.8,17.4,29.83,North,-999,-999.0,-999.0,62,-99.99,,,-99.99,open2300-1.11,2013-03-24 07:56:00,
2013-03-24 04:04:00,28.6,17.6,29.83,North,-999,-999.0,-999.0,63,-99.99,,,-99.99,open2300-1.11,2013-03-24 08:04:00,
2013-03-24 04:09:00,28.2,17.2,29.83,North,-999,-999.0,-999.0,63,-99.99,,,-99.99,open2300-1.11,2013-03-24 08:09:00,
2013-03-24 04:16:00,28.0,17.4,29.83,North,-999,-999.0,-999.0,64,-99.99,,,-99.99,open2300-1.11,2013-03-24 08:16:00,
2013-03-24 04:21:00,27.7,17.4,29.83,North,-999,-999.0,-999.0,65,-99.99,,,-99.99,open2300-1.11,2013-03-24 08:21:00,
2013-03-24 04:27:00,27.7,17.8,29.83,North,-999,-999.0,-999.0,66,-99.99,,,-99.99,open2300-1.11,2013-03-24 08:27:00,
2013-03-24 04:33:00,27.7,17.8,29.84,North,-999,-999.0,-999.0,66,-99.99,,,-99.99,open2300-1.11,2013-03-24 08:33:00,
2013-03-24 04:38:00,27.7,17.8,29.84,North,-999,-999.0,-999.0,66,-99.99,,,-99.99,open2300-1.11,2013-03-24 08:38:00,
2013-03-24 04:44:00,27.7,17.6,29.84,North,-999,-999.0,-999.0,66,-99.99,,,-99.99,open2300-1.11,2013-03-24 08:44:00,
2013-03-24 04:50:00,27.3,17.4,29.84,North,-999,-999.0,-999.0,66,-99.99,,,-99.99,open2300-1.11,2013-03-24 08:50:00,
2013-03-24 04:55:00,27.1,17.2,29.84,North,-999,-999.0,-999.0,66,-99.99,,,-99.99,open2300-1.11,2013-03-24 08:55:00,
2013-03-24 05:01:00,26.8,17.2,29.84,North,-999,-999.0,-999.0,67,-99.99,,,-99.99,open2300-1.11,2013-03-24 09:01:00,
2013-03-24 05:07:00,26.6,17.1,29.84,North,-999,-999.0,-999.0,67,-99.99,,,-99.99,open2300-1.11,2013-03-24 09:07:00,
2013-03-24 05:12:00,26.4,16.9,29.84,North,-999,-999.0,-999.0,67,-99.99,,,-99.99,open2300-1.11,2013-03-24 09:12:00,
2013-03-24 05:19:00,26.4,16.9,29.84,North,-999,-999.0,-999.0,67,-99.99,,,-99.99,open2300-1.11,2013-03-24 09:19:00,
2013-03-24 05:24:00,26.2,17.1,29.84,North,-999,-999.0,-999.0,68,-99.99,,,-99.99,open2300-1.11,2013-03-24 09:24:00,
2013-03-24 05:30:00,25.9,16.7,29.84,North,-999,-999.0,-999.0,68,-99.99,,,-99.99,open2300-1.11,2013-03-24 09:30:00,
2013-03-24 05:36:00,25.7,16.9,29.85,North,-999,-999.0,-999.0,69,-99.99,,,-99.99,open2300-1.11,2013-03-24 09:36:00,
2013-03-24 05:42:00,25.5,16.7,29.85,North,-999,-999.0,-999.0,69,-99.99,,,-99.99,open2300-1.11,2013-03-24 09:42:00,
2013-03-24 05:47:00,25.7,17.2,29.85,North,-999,-999.0,-999.0,70,-99.99,,,-99.99,open2300-1.11,2013-03-24 09:47:00,
2013-03-24 05:52:00,26.1,17.6,29.85,North,-999,-999.0,-999.0,70,-99.99,,,-99.99,open2300-1.11,2013-03-24 09:52:00,
2013-03-24 06:00:00,26.2,18.1,29.85,North,-999,-999.0,-999.0,71,-99.99,,,-99.99,open2300-1.11,2013-03-24 10:00:00,
2013-03-24 06:05:00,25.7,17.2,29.85,North,-999,-999.0,-999.0,70,-99.99,,,-99.99,open2300-1.11,2013-03-24 10:05:00,
2013-03-24 06:11:00,25.3,16.9,29.85,North,-999,-999.0,-999.0,70,-99.99,,,-99.99,open2300-1.11,2013-03-24 10:11:00,
2013-03-24 06:17:00,25.2,17.0,29.85,North,-999,-999.0,-999.0,71,-99.99,,,-99.99,open2300-1.11,2013-03-24 10:17:00,
2013-03-24 06:24:00,25.2,17.3,29.85,North,-999,-999.0,-999.0,72,-99.99,,,-99.99,open2300-1.11,2013-03-24 10:24:00,
2013-03-24 06:29:00,25.5,17.7,29.85,North,-999,-999.0,-999.0,72,-99.99,,,-99.99,open2300-1.11,2013-03-24 10:29:00,
2013-03-24 06:35:00,25.7,17.9,29.85,North,-999,-999.0,-999.0,72,-99.99,,,-99.99,open2300-1.11,2013-03-24 10:35:00,
2013-03-24 06:41:00,26.2,18.4,29.84,North,-999,-999.0,-999.0,72,-99.99,,,-99.99,open2300-1.11,2013-03-24 10:41:00,
2013-03-24 06:46:00,26.4,18.6,29.85,North,-999,-999.0,-999.0,72,-99.99,,,-99.99,open2300-1.11,2013-03-24 10:46:00,
2013-03-24 06:52:00,26.6,18.5,29.85,North,-999,-999.0,-999.0,71,-99.99,,,-99.99,open2300-1.11,2013-03-24 10:52:00,
2013-03-24 06:57:00,26.8,18.6,29.85,North,-999,-999.0,-999.0,71,-99.99,,,-99.99,open2300-1.11,2013-03-24 10:57:00,
2013-03-24 07:04:00,27.0,18.8,29.85,North,-999,-999.0,-999.0,71,-99.99,,,-99.99,open2300-1.11,2013-03-24 11:04:00,
2013-03-24 07:09:00,27.1,18.7,29.85,North,-999,-999.0,-999.0,70,-99.99,,,-99.99,open2300-1.11,2013-03-24 11:09:00,
2013-03-24 07:15:00,27.0,18.5,29.85,North,-999,-999.0,-999.0,70,-99.99,,,-99.99,open2300-1.11,2013-03-24 11:15:00,
2013-03-24 07:20:00,26.4,18.0,29.85,North,-999,-999.0,-999.0,70,-99.99,,,-99.99,open2300-1.11,2013-03-24 11:20:00,
2013-03-24 07:26:00,26.2,18.1,29.85,North,-999,-999.0,-999.0,71,-99.99,,,-99.99,open2300-1.11,2013-03-24 11:26:00,
2013-03-24 07:31:00,26.2,18.1,29.85,North,-999,-999.0,-999.0,71,-99.99,,,-99.99,open2300-1.11,2013-03-24 11:31:00,
2013-03-24 07:39:00,26.2,18.1,29.85,North,-999,-999.0,-999.0,71,-99.99,,,-99.99,open2300-1.11,2013-03-24 11:39:00,
2013-03-24 07:44:00,27.0,18.8,29.86,North,-999,-999.0,-999.0,71,-99.99,,,-99.99,open2300-1.11,2013-03-24 11:44:00,
2013-03-24 07:51:00,28.0,19.9,29.86,North,-999,-999.0,-999.0,71,-99.99,,,-99.99,open2300-1.11,2013-03-24 11:51:00,
2013-03-24 07:57:00,28.6,20.4,29.86,North,-999,-999.0,-999.0,71,-99.99,,,-99.99,open2300-1.11,2013-03-24 11:57:00,
2013-03-24 08:03:00,30.0,21.0,29.86,North,-999,-999.0,-999.0,69,-99.99,,,-99.99,open2300-1.11,2013-03-24 12:03:00,
2013-03-24 08:08:00,30.9,21.6,29.86,North,-999,-999.0,-999.0,68,-99.99,,,-99.99,open2300-1.11,2013-03-24 12:08:00,
2013-03-24 08:14:00,31.6,21.9,29.86,North,-999,-999.0,-999.0,67,-99.99,,,-99.99,open2300-1.11,2013-03-24 12:14:00,
2013-03-24 08:20:00,32.2,22.1,29.86,North,-999,-999.0,-999.0,66,-99.99,,,-99.99,open2300-1.11,2013-03-24 12:20:00,
2013-03-24 08:25:00,33.1,22.2,29.86,North,-999,-999.0,-999.0,64,-99.99,,,-99.99,open2300-1.11,2013-03-24 12:25:00,
2013-03-24 08:31:00,33.6,22.3,29.86,North,-999,-999.0,-999.0,63,-99.99,,,-99.99,open2300-1.11,2013-03-24 12:31:00,
2013-03-24 08:37:00,34.3,22.3,29.85,North,-999,-999.0,-999.0,61,-99.99,,,-99.99,open2300-1.11,2013-03-24 12:37:00,
2013-03-24 08:43:00,37.9,25.7,29.85,North,-999,-999.0,-999.0,61,-99.99,,,-99.99,open2300-1.11,2013-03-24 12:43:00,
2013-03-24 08:49:00,42.6,27.1,29.84,North,-999,-999.0,-999.0,54,-99.99,,,-99.99,open2300-1.11,2013-03-24 12:49:00,
2013-03-24 08:54:00,45.0,27.5,29.85,North,-999,-999.0,-999.0,50,-99.99,,,-99.99,open2300-1.11,2013-03-24 12:54:00,
2013-03-24 09:00:00,46.2,27.0,29.85,North,-999,-999.0,-999.0,47,-99.99,,,-99.99,open2300-1.11,2013-03-24 13:00:00,
2013-03-24 09:06:00,46.9,26.0,29.85,North,-999,-999.0,-999.0,44,-99.99,,,-99.99,open2300-1.11,2013-03-24 13:06:00,
2013-03-24 09:12:00,47.5,26.0,29.85,North,-999,-999.0,-999.0,43,-99.99,,,-99.99,open2300-1.11,2013-03-24 13:12:00,
2013-03-24 09:17:00,48.9,26.7,29.85,North,-999,-999.0,-999.0,42,-99.99,,,-99.99,open2300-1.11,2013-03-24 13:17:00,
2013-03-24 09:23:00,51.1,27.6,29.84,North,-999,-999.0,-999.0,40,-99.99,,,-99.99,open2300-1.11,2013-03-24 13:23:00,
2013-03-24 09:29:00,51.6,26.7,29.85,North,-999,-999.0,-999.0,38,-99.99,,,-99.99,open2300-1.11,2013-03-24 13:29:00,
2013-03-24 09:34:00,52.0,27.0,29.85,North,-999,-999.0,-999.0,38,-99.99,,,-99.99,open2300-1.11,2013-03-24 13:34:00,
2013-03-24 09:40:00,52.9,25.8,29.85,North,-999,-999.0,-999.0,35,-99.99,,,-99.99,open2300-1.11,2013-03-24 13:40:00,
2013-03-24 09:45:00,53.8,26.6,29.84,North,-999,-999.0,-999.0,35,-99.99,,,-99.99,open2300-1.11,2013-03-24 13:45:00,
2013-03-24 09:51:00,54.5,25.8,29.84,North,-999,-999.0,-999.0,33,-99.99,,,-99.99,open2300-1.11,2013-03-24 13:51:00,
2013-03-24 09:56:00,55.2,26.4,29.84,North,-999,-999.0,-999.0,33,-99.99,,,-99.99,open2300-1.11,2013-03-24 13:56:00,
2013-03-24 10:02:00,56.1,27.2,29.84,North,-999,-999.0,-999.0,33,-99.99,,,-99.99,open2300-1.11,2013-03-24 14:02:00,
2013-03-24 10:09:00,57.0,26.6,29.83,North,-999,-999.0,-999.0,31,-99.99,,,-99.99,open2300-1.11,2013-03-24 14:09:00,
2013-03-24 10:15:00,56.1,25.1,29.83,North,-999,-999.0,-999.0,30,-99.99,,,-99.99,open2300-1.11,2013-03-24 14:15:00,
2013-03-24 10:20:00,54.9,24.7,29.82,North,-999,-999.0,-999.0,31,-99.99,,,-99.99,open2300-1.11,2013-03-24 14:20:00,
2013-03-24 10:26:00,55.9,25.6,29.82,North,-999,-999.0,-999.0,31,-99.99,,,-99.99,open2300-1.11,2013-03-24 14:26:00,
2013-03-24 10:31:00,57.7,27.2,29.82,North,-999,-999.0,-999.0,31,-99.99,,,-99.99,open2300-1.11,2013-03-24 14:31:00,
2013-03-24 10:37:00,58.3,27.0,29.82,North,-999,-999.0,-999.0,30,-99.99,,,-99.99,open2300-1.11,2013-03-24 14:37:00,
2013-03-24 10:44:00,57.9,25.7,29.81,North,-999,-999.0,-999.0,29,-99.99,,,-99.99,open2300-1.11,2013-03-24 14:44:00,
2013-03-24 10:49:00,58.8,26.5,29.81,North,-999,-999.0,-999.0,29,-99.99,,,-99.99,open2300-1.11,2013-03-24 14:49:00,
2013-03-24 10:55:00,57.9,24.8,29.80,North,-999,-999.0,-999.0,28,-99.99,,,-99.99,open2300-1.11,2013-03-24 14:55:00,
2013-03-24 11:00:00,57.6,24.5,29.80,North,-999,-999.0,-999.0,28,-99.99,,,-99.99,open2300-1.11,2013-03-24 15:00:00,
2013-03-24 11:07:00,55.8,22.9,29.79,North,-999,-999.0,-999.0,28,-99.99,,,-99.99,open2300-1.11,2013-03-24 15:07:00,
2013-03-24 11:12:00,50.7,19.5,29.79,North,-999,-999.0,-999.0,29,-99.99,,,-99.99,open2300-1.11,2013-03-24 15:12:00,
2013-03-24 11:18:00,48.6,19.9,29.79,North,-999,-999.0,-999.0,32,-99.99,,,-99.99,open2300-1.11,2013-03-24 15:18:00,
2013-03-24 11:24:00,46.6,19.5,29.78,North,-999,-999.0,-999.0,34,-99.99,,,-99.99,open2300-1.11,2013-03-24 15:24:00,
2013-03-24 11:30:00,45.5,19.2,29.78,North,-999,-999.0,-999.0,35,-99.99,,,-99.99,open2300-1.11,2013-03-24 15:30:00,
2013-03-24 11:36:00,45.1,20.9,29.78,North,-999,-999.0,-999.0,38,-99.99,,,-99.99,open2300-1.11,2013-03-24 15:36:00,
2013-03-24 11:42:00,45.1,20.2,29.78,North,-999,-999.0,-999.0,37,-99.99,,,-99.99,open2300-1.11,2013-03-24 15:42:00,
2013-03-24 11:48:00,45.0,20.7,29.77,North,-999,-999.0,-999.0,38,-99.99,,,-99.99,open2300-1.11,2013-03-24 15:48:00,
2013-03-24 11:53:00,45.3,21.1,29.76,North,-999,-999.0,-999.0,38,-99.99,,,-99.99,open2300-1.11,2013-03-24 15:53:00,
2013-03-24 11:59:00,45.1,20.9,29.75,North,-999,-999.0,-999.0,38,-99.99,,,-99.99,open2300-1.11,2013-03-24 15:59:00,
2013-03-24 12:04:00,45.1,20.9,29.75,North,-999,-999.0,-999.0,38,-99.99,,,-99.99,open2300-1.11,2013-03-24 16:04:00,
2013-03-24 12:10:00,45.5,21.9,29.74,North,-999,-999.0,-999.0,39,-99.99,,,-99.99,open2300-1.11,2013-03-24 16:10:00,
2013-03-24 12:18:00,45.9,22.2,29.74,North,-999,-999.0,-999.0,39,-99.99,,,-99.99,open2300-1.11,2013-03-24 16:18:00,
2013-03-24 12:23:00,46.2,21.9,29.74,North,-999,-999.0,-999.0,38,-99.99,,,-99.99,open2300-1.11,2013-03-24 16:23:00,
2013-03-24 12:29:00,46.9,23.2,29.74,North,-999,-999.0,-999.0,39,-99.99,,,-99.99,open2300-1.11,2013-03-24 16:29:00,
2013-03-24 12:34:00,47.3,22.8,29.74,North,-999,-999.0,-999.0,38,-99.99,,,-99.99,open2300-1.11,2013-03-24 16:34:00,
2013-03-24 12:40:00,47.7,23.2,29.74,North,-999,-999.0,-999.0,38,-99.99,,,-99.99,open2300-1.11,2013-03-24 16:40:00,
2013-03-24 12:46:00,48.0,22.8,29.75,North,-999,-999.0,-999.0,37,-99.99,,,-99.99,open2300-1.11,2013-03-24 16:46:00,
2013-03-24 12:51:00,48.0,22.8,29.75,North,-999,-999.0,-999.0,37,-99.99,,,-99.99,open2300-1.11,2013-03-24 16:51:00,
2013-03-24 12:57:00,48.6,24.0,29.75,North,-999,-999.0,-999.0,38,-99.99,,,-99.99,open2300-1.11,2013-03-24 16:57:00,
2013-03-24 13:02:00,49.1,23.8,29.75,North,-999,-999.0,-999.0,37,-99.99,,,-99.99,open2300-1.11,2013-03-24 17:02:00,
2013-03-24 13:08:00,49.3,23.9,29.75,North,-999,-999.0,-999.0,37,-99.99,,,-99.99,open2300-1.11,2013-03-24 17:08:00,
2013-03-24 13:13:00,49.8,24.4,29.75,North,-999,-999.0,-999.0,37,-99.99,,,-99.99,open2300-1.11,2013-03-24 17:13:00,
2013-03-24 13:19:00,50.5,24.4,29.75,North,-999,-999.0,-999.0,36,-99.99,,,-99.99,open2300-1.11,2013-03-24 17:19:00,
2013-03-24 13:25:00,51.1,24.1,29.75,North,-999,-999.0,-999.0,35,-99.99,,,-99.99,open2300-1.11,2013-03-24 17:25:00,
2013-03-24 13:30:00,51.1,24.1,29.74,North,-999,-999.0,-999.0,35,-99.99,,,-99.99,open2300-1.11,2013-03-24 17:30:00,
2013-03-24 13:37:00,51.1,24.1,29.72,North,-999,-999.0,-999.0,35,-99.99,,,-99.99,open2300-1.11,2013-03-24 17:37:00,
2013-03-24 13:42:00,51.4,24.5,29.71,North,-999,-999.0,-999.0,35,-99.99,,,-99.99,open2300-1.11,2013-03-24 17:42:00,
2013-03-24 13:48:00,51.3,23.6,29.70,North,-999,-999.0,-999.0,34,-99.99,,,-99.99,open2300-1.11,2013-03-24 17:48:00,
2013-03-24 13:54:00,51.4,24.5,29.70,North,-999,-999.0,-999.0,35,-99.99,,,-99.99,open2300-1.11,2013-03-24 17:54:00,
2013-03-24 13:59:00,51.4,23.8,29.69,North,-999,-999.0,-999.0,34,-99.99,,,-99.99,open2300-1.11,2013-03-24 17:59:00,
2013-03-24 14:04:00,51.6,24.0,29.69,North,-999,-999.0,-999.0,34,-99.99,,,-99.99,open2300-1.11,2013-03-24 18:04:00,
2013-03-24 14:10:00,51.6,24.0,29.68,North,-999,-999.0,-999.0,34,-99.99,,,-99.99,open2300-1.11,2013-03-24 18:10:00,
2013-03-24 14:16:00,51.6,23.3,29.68,North,-999,-999.0,-999.0,33,-99.99,,,-99.99,open2300-1.11,2013-03-24 18:16:00,
2013-03-24 14:22:00,51.6,23.3,29.67,North,-999,-999.0,-999.0,33,-99.99,,,-99.99,open2300-1.11,2013-03-24 18:22:00,
2013-03-24 14:27:00,51.6,23.3,29.67,North,-999,-999.0,-999.0,33,-99.99,,,-99.99,open2300-1.11,2013-03-24 18:27:00,
2013-03-24 14:33:00,51.6,23.3,29.67,North,-999,-999.0,-999.0,33,-99.99,,,-99.99,open2300-1.11,2013-03-24 18:33:00,
2013-03-24 14:39:00,51.6,24.0,29.66,North,-999,-999.0,-999.0,34,-99.99,,,-99.99,open2300-1.11,2013-03-24 18:39:00,
2013-03-24 14:44:00,52.0,23.6,29.66,North,-999,-999.0,-999.0,33,-99.99,,,-99.99,open2300-1.11,2013-03-24 18:44:00,
2013-03-24 14:50:00,51.6,22.6,29.65,North,-999,-999.0,-999.0,32,-99.99,,,-99.99,open2300-1.11,2013-03-24 18:50:00,
2013-03-24 14:56:00,51.8,23.4,29.65,North,-999,-999.0,-999.0,33,-99.99,,,-99.99,open2300-1.11,2013-03-24 18:56:00,
2013-03-24 15:02:00,52.3,23.9,29.65,North,-999,-999.0,-999.0,33,-99.99,,,-99.99,open2300-1.11,2013-03-24 19:02:00,
2013-03-24 15:07:00,52.2,23.8,29.65,North,-999,-999.0,-999.0,33,-99.99,,,-99.99,open2300-1.11,2013-03-24 19:07:00,
2013-03-24 15:13:00,52.2,23.1,29.65,North,-999,-999.0,-999.0,32,-99.99,,,-99.99,open2300-1.11,2013-03-24 19:13:00,
2013-03-24 15:19:00,52.0,23.6,29.64,North,-999,-999.0,-999.0,33,-99.99,,,-99.99,open2300-1.11,2013-03-24 19:19:00,
2013-03-24 15:24:00,52.3,23.9,29.64,North,-999,-999.0,-999.0,33,-99.99,,,-99.99,open2300-1.11,2013-03-24 19:24:00,
2013-03-24 15:30:00,52.2,23.1,29.64,North,-999,-999.0,-999.0,32,-99.99,,,-99.99,open2300-1.11,2013-03-24 19:30:00,
2013-03-24 15:35:00,52.0,23.6,29.64,North,-999,-999.0,-999.0,33,-99.99,,,-99.99,open2300-1.11,2013-03-24 19:35:00,
2013-03-24 15:41:00,52.0,23.6,29.64,North,-999,-999.0,-999.0,33,-99.99,,,-99.99,open2300-1.11,2013-03-24 19:41:00,
2013-03-24 15:47:00,51.6,23.3,29.63,North,-999,-999.0,-999.0,33,-99.99,,,-99.99,open2300-1.11,2013-03-24 19:47:00,
2013-03-24 15:54:00,51.6,24.0,29.63,North,-999,-999.0,-999.0,34,-99.99,,,-99.99,open2300-1.11,2013-03-24 19:54:00,
2013-03-24 16:00:00,51.6,23.3,29.63,North,-999,-999.0,-999.0,33,-99.99,,,-99.99,open2300-1.11,2013-03-24 20:00:00,
2013-03-24 16:06:00,51.3,23.6,29.63,North,-999,-999.0,-999.0,34,-99.99,,,-99.99,open2300-1.11,2013-03-24 20:06:00,
2013-03-24 16:12:00,50.4,22.8,29.63,North,-999,-999.0,-999.0,34,-99.99,,,-99.99,open2300-1.11,2013-03-24 20:12:00,
2013-03-24 16:19:00,49.8,23.0,29.62,North,-999,-999.0,-999.0,35,-99.99,,,-99.99,open2300-1.11,2013-03-24 20:19:00,
2013-03-24 16:24:00,49.3,22.6,29.62,North,-999,-999.0,-999.0,35,-99.99,,,-99.99,open2300-1.11,2013-03-24 20:24:00,
2013-03-24 16:30:00,48.9,22.3,29.62,North,-999,-999.0,-999.0,35,-99.99,,,-99.99,open2300-1.11,2013-03-24 20:30:00,
2013-03-24 16:36:00,48.9,22.9,29.62,North,-999,-999.0,-999.0,36,-99.99,,,-99.99,open2300-1.11,2013-03-24 20:36:00,
2013-03-24 16:42:00,48.7,22.8,29.61,North,-999,-999.0,-999.0,36,-99.99,,,-99.99,open2300-1.11,2013-03-24 20:42:00,
2013-03-24 16:48:00,48.6,23.3,29.61,North,-999,-999.0,-999.0,37,-99.99,,,-99.99,open2300-1.11,2013-03-24 20:48:00,
2013-03-24 16:54:00,48.2,23.0,29.61,North,-999,-999.0,-999.0,37,-99.99,,,-99.99,open2300-1.11,2013-03-24 20:54:00,
2013-03-24 17:00:00,47.8,22.7,29.61,North,-999,-999.0,-999.0,37,-99.99,,,-99.99,open2300-1.11,2013-03-24 21:00:00,
2013-03-24 17:06:00,47.8,22.7,29.61,North,-999,-999.0,-999.0,37,-99.99,,,-99.99,open2300-1.11,2013-03-24 21:06:00,
2013-03-24 17:11:00,47.7,22.5,29.61,North,-999,-999.0,-999.0,37,-99.99,,,-99.99,open2300-1.11,2013-03-24 21:11:00,
2013-03-24 17:16:00,47.3,22.8,29.61,North,-999,-999.0,-999.0,38,-99.99,,,-99.99,open2300-1.11,2013-03-24 21:16:00,
2013-03-24 17:24:00,46.9,22.5,29.61,North,-999,-999.0,-999.0,38,-99.99,,,-99.99,open2300-1.11,2013-03-24 21:24:00,
2013-03-24 17:29:00,46.6,22.2,29.61,North,-999,-999.0,-999.0,38,-99.99,,,-99.99,open2300-1.11,2013-03-24 21:29:00,
2013-03-24 17:34:00,46.6,22.9,29.61,North,-999,-999.0,-999.0,39,-99.99,,,-99.99,open2300-1.11,2013-03-24 21:34:00,
2013-03-24 17:40:00,46.2,22.5,29.61,North,-999,-999.0,-999.0,39,-99.99,,,-99.99,open2300-1.11,2013-03-24 21:40:00,
2013-03-24 17:46:00,46.2,22.5,29.61,North,-999,-999.0,-999.0,39,-99.99,,,-99.99,open2300-1.11,2013-03-24 21:46:00,
2013-03-24 17:54:00,45.7,22.0,29.62,North,-999,-999.0,-999.0,39,-99.99,,,-99.99,open2300-1.11,2013-03-24 21:54:00,
2013-03-24 17:59:00,45.5,22.5,29.61,North,-999,-999.0,-999.0,40,-99.99,,,-99.99,open2300-1.11,2013-03-24 21:59:00,
2013-03-24 18:05:00,45.1,22.2,29.61,North,-999,-999.0,-999.0,40,-99.99,,,-99.99,open2300-1.11,2013-03-24 22:05:00,
2013-03-24 18:10:00,45.1,22.2,29.61,North,-999,-999.0,-999.0,40,-99.99,,,-99.99,open2300-1.11,2013-03-24 22:10:00,
2013-03-24 18:16:00,45.0,22.1,29.61,North,-999,-999.0,-999.0,40,-99.99,,,-99.99,open2300-1.11,2013-03-24 22:16:00,
2013-03-24 18:24:00,44.8,22.4,29.60,North,-999,-999.0,-999.0,41,-99.99,,,-99.99,open2300-1.11,2013-03-24 22:24:00,
2013-03-24 18:29:00,44.6,22.3,29.60,North,-999,-999.0,-999.0,41,-99.99,,,-99.99,open2300-1.11,2013-03-24 22:29:00,
2013-03-24 18:34:00,44.4,22.1,29.60,North,-999,-999.0,-999.0,41,-99.99,,,-99.99,open2300-1.11,2013-03-24 22:34:00,
2013-03-24 18:39:00,44.4,22.1,29.60,North,-999,-999.0,-999.0,41,-99.99,,,-99.99,open2300-1.11,2013-03-24 22:39:00,
2013-03-24 18:45:00,44.2,22.5,29.60,North,-999,-999.0,-999.0,42,-99.99,,,-99.99,open2300-1.11,2013-03-24 22:45:00,
2013-03-24 18:51:00,43.9,22.7,29.61,North,-999,-999.0,-999.0,43,-99.99,,,-99.99,open2300-1.11,2013-03-24 22:51:00,
2013-03-24 18:57:00,43.5,22.4,29.61,North,-999,-999.0,-999.0,43,-99.99,,,-99.99,open2300-1.11,2013-03-24 22:57:00,
2013-03-24 19:03:00,43.3,22.2,29.61,North,-999,-999.0,-999.0,43,-99.99,,,-99.99,open2300-1.11,2013-03-24 23:03:00,
2013-03-24 19:08:00,43.2,22.6,29.61,North,-999,-999.0,-999.0,44,-99.99,,,-99.99,open2300-1.11,2013-03-24 23:08:00,
2013-03-24 19:13:00,43.0,22.4,29.62,North,-999,-999.0,-999.0,44,-99.99,,,-99.99,open2300-1.11,2013-03-24 23:13:00,
2013-03-24 19:18:00,42.6,22.1,29.62,North,-999,-999.0,-999.0,44,-99.99,,,-99.99,open2300-1.11,2013-03-24 23:18:00,
2013-03-24 19:24:00,42.1,22.1,29.63,North,-999,-999.0,-999.0,45,-99.99,,,-99.99,open2300-1.11,2013-03-24 23:24:00,
2013-03-24 19:30:00,42.1,22.1,29.63,North,-999,-999.0,-999.0,45,-99.99,,,-99.99,open2300-1.11,2013-03-24 23:30:00,
2013-03-24 19:35:00,41.7,21.8,29.63,North,-999,-999.0,-999.0,45,-99.99,,,-99.99,open2300-1.11,2013-03-24 23:35:00,
2013-03-24 19:40:00,41.5,22.1,29.63,North,-999,-999.0,-999.0,46,-99.99,,,-99.99,open2300-1.11,2013-03-24 23:40:00,
2013-03-24 19:46:00,41.5,22.1,29.63,North,-999,-999.0,-999.0,46,-99.99,,,-99.99,open2300-1.11,2013-03-24 23:46:00,
2013-03-24 19:51:00,41.5,22.7,29.64,North,-999,-999.0,-999.0,47,-99.99,,,-99.99,open2300-1.11,2013-03-24 23:51:00,
2013-03-24 19:57:00,41.2,21.8,29.64,North,-999,-999.0,-999.0,46,-99.99,,,-99.99,open2300-1.11,2013-03-24 23:57:00,
2013-03-24 20:04:00,41.2,22.3,29.63,North,-999,-999.0,-999.0,47,-99.99,,,-99.99,open2300-1.11,2013-03-25 00:04:00,
2013-03-24 20:09:00,41.2,22.3,29.63,North,-999,-999.0,-999.0,47,-99.99,,,-99.99,open2300-1.11,2013-03-25 00:09:00,
2013-03-24 20:15:00,41.4,23.0,29.64,North,-999,-999.0,-999.0,48,-99.99,,,-99.99,open2300-1.11,2013-03-25 00:15:00,
2013-03-24 20:21:00,41.5,23.2,29.64,North,-999,-999.0,-999.0,48,-99.99,,,-99.99,open2300-1.11,2013-03-25 00:21:00,
2013-03-24 20:26:00,41.5,23.2,29.64,North,-999,-999.0,-999.0,48,-99.99,,,-99.99,open2300-1.11,2013-03-25 00:26:00,
2013-03-24 20:31:00,41.7,23.4,29.64,North,-999,-999.0,-999.0,48,-99.99,,,-99.99,open2300-1.11,2013-03-25 00:31:00,
2013-03-24 20:37:00,41.5,23.2,29.64,North,-999,-999.0,-999.0,48,-99.99,,,-99.99,open2300-1.11,2013-03-25 00:37:00,
2013-03-24 20:43:00,41.4,23.0,29.64,North,-999,-999.0,-999.0,48,-99.99,,,-99.99,open2300-1.11,2013-03-25 00:43:00,
2013-03-24 20:48:00,41.2,22.8,29.64,North,-999,-999.0,-999.0,48,-99.99,,,-99.99,open2300-1.11,2013-03-25 00:48:00,
2013-03-24 20:54:00,41.0,22.7,29.64,North,-999,-999.0,-999.0,48,-99.99,,,-99.99,open2300-1.11,2013-03-25 00:54:00,
2013-03-24 21:00:00,41.0,23.2,29.64,North,-999,-999.0,-999.0,49,-99.99,,,-99.99,open2300-1.11,2013-03-25 01:00:00,
2013-03-24 21:05:00,40.8,23.6,29.64,North,-999,-999.0,-999.0,50,-99.99,,,-99.99,open2300-1.11,2013-03-25 01:05:00,
2013-03-24 21:11:00,40.8,23.6,29.64,North,-999,-999.0,-999.0,50,-99.99,,,-99.99,open2300-1.11,2013-03-25 01:11:00,
2013-03-24 21:19:00,40.8,23.6,29.64,North,-999,-999.0,-999.0,50,-99.99,,,-99.99,open2300-1.11,2013-03-25 01:19:00,
2013-03-24 21:25:00,40.6,23.8,29.65,North,-999,-999.0,-999.0,51,-99.99,,,-99.99,open2300-1.11,2013-03-25 01:25:00,
2013-03-24 21:31:00,40.6,23.8,29.65,North,-999,-999.0,-999.0,51,-99.99,,,-99.99,open2300-1.11,2013-03-25 01:31:00,
2013-03-24 21:37:00,40.3,23.5,29.65,North,-999,-999.0,-999.0,51,-99.99,,,-99.99,open2300-1.11,2013-03-25 01:37:00,
2013-03-24 21:44:00,40.1,23.8,29.65,North,-999,-999.0,-999.0,52,-99.99,,,-99.99,open2300-1.11,2013-03-25 01:44:00,
2013-03-24 21:50:00,39.9,24.1,29.65,North,-999,-999.0,-999.0,53,-99.99,,,-99.99,open2300-1.11,2013-03-25 01:50:00,
2013-03-24 21:55:00,39.9,24.1,29.65,North,-999,-999.0,-999.0,53,-99.99,,,-99.99,open2300-1.11,2013-03-25 01:55:00,
2013-03-24 22:01:00,39.7,24.3,29.65,North,-999,-999.0,-999.0,54,-99.99,,,-99.99,open2300-1.11,2013-03-25 02:01:00,
2013-03-24 22:07:00,39.9,24.5,29.65,North,-999,-999.0,-999.0,54,-99.99,,,-99.99,open2300-1.11,2013-03-25 02:07:00,
2013-03-24 22:12:00,39.9,24.5,29.65,North,-999,-999.0,-999.0,54,-99.99,,,-99.99,open2300-1.11,2013-03-25 02:12:00,
2013-03-24 22:18:00,39.9,24.9,29.65,North,-999,-999.0,-999.0,55,-99.99,,,-99.99,open2300-1.11,2013-03-25 02:18:00,
2013-03-24 22:24:00,39.7,25.2,29.66,North,-999,-999.0,-999.0,56,-99.99,,,-99.99,open2300-1.11,2013-03-25 02:24:00,
2013-03-24 22:29:00,39.4,25.3,29.65,North,-999,-999.0,-999.0,57,-99.99,,,-99.99,open2300-1.11,2013-03-25 02:29:00,
2013-03-24 22:35:00,39.2,25.1,29.64,North,-999,-999.0,-999.0,57,-99.99,,,-99.99,open2300-1.11,2013-03-25 02:35:00,
2013-03-24 22:41:00,39.0,25.0,29.64,North,-999,-999.0,-999.0,57,-99.99,,,-99.99,open2300-1.11,2013-03-25 02:41:00,
2013-03-24 22:46:00,38.8,25.2,29.64,North,-999,-999.0,-999.0,58,-99.99,,,-99.99,open2300-1.11,2013-03-25 02:46:00,
2013-03-24 22:53:00,38.5,25.3,29.63,North,-999,-999.0,-999.0,59,-99.99,,,-99.99,open2300-1.11,2013-03-25 02:53:00,
2013-03-24 22:59:00,38.5,25.3,29.63,North,-999,-999.0,-999.0,59,-99.99,,,-99.99,open2300-1.11,2013-03-25 02:59:00,
2013-03-24 23:05:00,38.3,25.6,29.63,North,-999,-999.0,-999.0,60,-99.99,,,-99.99,open2300-1.11,2013-03-25 03:05:00,
2013-03-24 23:10:00,38.1,25.5,29.62,North,-999,-999.0,-999.0,60,-99.99,,,-99.99,open2300-1.11,2013-03-25 03:10:00,
2013-03-24 23:16:00,37.9,25.7,29.62,North,-999,-999.0,-999.0,61,-99.99,,,-99.99,open2300-1.11,2013-03-25 03:16:00,
2013-03-24 23:22:00,37.8,25.5,29.61,North,-999,-999.0,-999.0,61,-99.99,,,-99.99,open2300-1.11,2013-03-25 03:22:00,
2013-03-24 23:28:00,37.8,25.5,29.61,North,-999,-999.0,-999.0,61,-99.99,,,-99.99,open2300-1.11,2013-03-25 03:28:00,
2013-03-24 23:34:00,37.6,25.3,29.61,North,-999,-999.0,-999.0,61,-99.99,,,-99.99,open2300-1.11,2013-03-25 03:34:00,
2013-03-24 23:39:00,37.4,25.2,29.61,North,-999,-999.0,-999.0,61,-99.99,,,-99.99,open2300-1.11,2013-03-25 03:39:00,
2013-03-24 23:44:00,37.2,25.4,29.60,North,-999,-999.0,-999.0,62,-99.99,,,-99.99,open2300-1.11,2013-03-25 03:44:00,
2013-03-24 23:50:00,37.2,25.0,29.60,North,-999,-999.0,-999.0,61,-99.99,,,-99.99,open2300-1.11,2013-03-25 03:50:00,
2013-03-24 23:55:00,37.2,25.0,29.60,North,-999,-999.0,-999.0,61,-99.99,,,-99.99,open2300-1.11,2013-03-25 03:55:00,